Location: Prague
(50.0833°N, 14.4667°E)
Time: 20:24:58
(UTC+02:00)

ISS - Pass Details

Date: 31 May 2024
Orbit: 410 x 421 km, 51.6° (Epoch: 12 June)

Event Time Altitude Azimuth Distance (km) Brightness Sun altitude
Rises 19:05:26 0° 287° (WNW) 2,378 2.0 15.9°
Reaches altitude 10° 19:07:35 10° 281° (WNW) 1,510 1.9 15.6°
Maximum altitude 19:10:50 45° 208° (SSW) 586 -2.7 15.1°
Drops below altitude 10° 19:14:04 10° 134° (SE) 1,498 -1.4 14.6°
Sets 19:16:12 0° 128° (SE) 2,356 -0.5 14.2°
